Location: Brachbach
(49.1847°N, 9.7240°E)
Time: 00:13:45
(UTC+00:00)

NANOSAT C BR1 - Visible Passes

Search period start: 14 March 2026 00:00
Search period end: 24 March 2026 00:00
Orbit: 478 x 484 km, 98.1° (Epoch: 13 March)

Date Brightness Start Highest point End Pass type
(mag) Time Alt. Az. Time Alt. Az. Time Alt. Az.
14 Mar ? 18:27:30 10° SSW 18:30:34 27° W 18:33:39 10° NW visible
15 Mar ? 18:01:25 10° S 18:04:55 53° W 18:08:26 10° NNW visible
17 Mar ? 18:44:39 10° SW 18:47:12 18° W 18:49:46 10° NW visible
18 Mar ? 18:18:05 10° SSW 18:21:22 35° W 18:24:41 10° NNW visible
20 Mar ? 19:01:51 10° WSW 19:03:31 13° W 19:05:12 10° WNW visible
21 Mar ? 18:34:35 10° SSW 18:37:32 24° W 18:40:29 10° NW visible
22 Mar ? 18:08:08 10° S 18:11:35 47° W 18:15:03 10° NNW visible
